Location: Błonie
(52.1971°N, 20.6200°E)
Time: 15:29:06
(UTC+01:00)

ISS - Pass Details

Date: 27 January 2019
Orbit: 403 x 411 km, 51.6° (Epoch: 16 February)

Event Time Altitude Azimuth Distance (km) Brightness Sun altitude
Rises 18:23:26 0° 247° (WSW) 2,332 1.4 -19.5°
Reaches altitude 10° 18:25:32 10° 243° (WSW) 1,474 0.0 -19.8°
Enters shadow 18:28:34 57° 185° (S) 491 -3.5 -20.2°
